DW1743 Abbeville FR current weather conditions

sailwx.info

Wind from 260 at 4 knots gusting 10

Air temperature 19.4° C
Dewpoint 15.7° C

Last reported at 2019-Aug-18 12:06 UTC.
Time now 2019-Aug-18 12:53 UTC

Location: N 49°55' E 001°57'.
View on Google Maps.

See reports from other nearby stations

  
Tides and Currents Weather Stations Pressure Air Temp Water Temp Dewpoint Dewpoint Depression Visibility Wind Speed Wind Dir Waves Ship Positions
date/time (UTC)wind fromknots sea level pressurealtimeterstation pressurevisibilityair tempwater tempwave heightnotes
2019-Aug-18 12:06 260 4 gusting 10 19.4
2019-Aug-18 12:01 262 5 gusting 10 18.9
2019-Aug-18 11:56 262 5 gusting 10 18.9
2019-Aug-18 11:51 260 4 gusting 9 18.3
2019-Aug-18 11:46 263 2 gusting 9 18.3
2019-Aug-18 11:41 267 1 gusting 7 18.3
2019-Aug-18 11:36 252 0 gusting 6 18.3
2019-Aug-18 11:30 226 1 gusting 6 17.8
2019-Aug-18 11:21 270 2 gusting 7 17.8
2019-Aug-18 11:16 264 4 gusting 10 17.8
2019-Aug-18 11:11 262 3 gusting 10 17.8
2019-Aug-18 11:06 269 3 gusting 9 17.8
2019-Aug-18 11:01 266 2 gusting 9 17.8
2019-Aug-18 10:56 269 1 gusting 9 17.8
2019-Aug-18 10:51 278 1 gusting 6 17.2
2019-Aug-18 10:46 278 2 gusting 6 17.2
2019-Aug-18 10:41 274 3 gusting 8 17.2
2019-Aug-18 10:16 255 1 gusting 6 16.7
2019-Aug-18 10:11 266 2 gusting 7 16.7
2019-Aug-18 10:06 262 2 gusting 7 16.7
2019-Aug-18 10:01 263 2 gusting 7 16.7
2019-Aug-18 09:56 265 3 gusting 7 16.7
2019-Aug-18 09:51 267 4 gusting 7 16.7
2019-Aug-18 09:46 250 3 gusting 11 16.1
2019-Aug-18 09:31 251 5 gusting 10 16.1
2019-Aug-18 09:21 269 3 gusting 7 16.7
2019-Aug-18 09:16 299 1 gusting 7 16.1
2019-Aug-18 09:02 276 2 gusting 7 16.1
2019-Aug-18 08:46 261 1 gusting 6 16.1
2019-Aug-18 08:36 281 2 gusting 6 16.1
2019-Aug-18 08:31 239 3 gusting 7 15.6
2019-Aug-18 08:26 267 3 gusting 6 16.1
2019-Aug-18 08:21 262 2 gusting 6 16.1
2019-Aug-18 08:16 268 1 gusting 6 16.1
2019-Aug-18 08:06 276 3 gusting 7 15.6
2019-Aug-18 08:01 274 3 gusting 7 15.6
2019-Aug-18 07:56 272 2 gusting 6 15.6
2019-Aug-18 07:51 276 1 gusting 6 15.6
2019-Aug-18 07:46 283 1 gusting 4 15.6
2019-Aug-18 07:41 279 0 gusting 2 15.6
2019-Aug-18 07:36 275 1 gusting 3 15.6
2019-Aug-18 07:31 269 1 gusting 3 15.6
2019-Aug-18 07:26 254 1 gusting 3 15.6
2019-Aug-18 07:21 242 0 gusting 2 15.6
2019-Aug-18 07:16 243 0 gusting 2 15.6
2019-Aug-18 07:11 197 1 gusting 4 15.6
2019-Aug-18 07:06 182 0 gusting 4 15.0
2019-Aug-18 07:01 168 15.0
2019-Aug-18 06:56 15.0
2019-Aug-18 06:51 15.0
2019-Aug-18 06:46 168 15.0
2019-Aug-18 06:41 168 15.0
2019-Aug-18 06:36 168 15.0
2019-Aug-18 06:31 15.0
2019-Aug-18 06:16 168 14.4
2019-Aug-18 06:01 168 14.4
2019-Aug-18 05:47 175 2 gusting 5 14.4
2019-Aug-18 05:21 191 15.0
2019-Aug-18 05:16 15.0
2019-Aug-18 05:11 15.0
2019-Aug-18 05:06 15.0
2019-Aug-18 05:01 190 14.4
2019-Aug-18 04:45 190 14.4
2019-Aug-18 04:36 15.0
2019-Aug-18 04:31 15.0
2019-Aug-18 04:26 15.0
2019-Aug-18 04:21 15.0
2019-Aug-18 04:16 190 14.4
2019-Aug-18 04:11 15.0
2019-Aug-18 04:01 190 14.4
2019-Aug-18 03:45 190 14.4
2019-Aug-18 03:36 15.0
2019-Aug-18 03:02 190 15.0
2019-Aug-18 02:56 15.0
2019-Aug-18 02:51 15.0
2019-Aug-18 02:46 190 15.0
2019-Aug-18 02:41 184 15.0
2019-Aug-18 02:36 182 15.0
2019-Aug-18 02:31 188 15.6
2019-Aug-18 02:26 198 15.6
2019-Aug-18 02:21 198 15.6
2019-Aug-18 02:16 197 15.0
2019-Aug-18 02:11 191 1 gusting 4 15.6
2019-Aug-18 02:06 177 2 gusting 6 15.6
2019-Aug-18 02:01 170 2 gusting 6 15.6
2019-Aug-18 01:56 167 3 gusting 6 15.6
2019-Aug-18 01:51 163 2 gusting 6 15.6
2019-Aug-18 01:46 164 0 gusting 6 15.6
2019-Aug-18 01:41 182 15.6
2019-Aug-18 01:36 182 15.6
2019-Aug-18 01:31 15.6
2019-Aug-18 01:26 15.6
2019-Aug-18 01:21 15.6
2019-Aug-18 00:45 178 0 gusting 4 15.6
2019-Aug-18 00:41 190 1 gusting 6 15.6
2019-Aug-18 00:36 192 0 gusting 6 15.6
2019-Aug-18 00:31 201 15.6
2019-Aug-18 00:26 203 15.6
2019-Aug-18 00:21 203 15.6
2019-Aug-18 00:16 203 15.6
2019-Aug-18 00:11 203 0 gusting 3 15.6
2019-Aug-18 00:06 201 0 gusting 3 15.6
2019-Aug-18 00:01 201 0 gusting 4 16.1
2019-Aug-17 23:56 202 0 gusting 4 15.6
2019-Aug-17 23:51 202 0 gusting 3 16.1
2019-Aug-17 23:46 201 15.6
2019-Aug-17 23:36 200 15.6
2019-Aug-17 23:31 200 15.6
2019-Aug-17 23:26 15.6
2019-Aug-17 23:21 200 15.6
2019-Aug-17 23:16 200 15.6
2019-Aug-17 23:11 15.6
2019-Aug-17 23:01 199 15.6
2019-Aug-17 22:46 199 15.6
2019-Aug-17 22:36 201 15.6
2019-Aug-17 22:31 201 15.6
2019-Aug-17 22:26 200 15.6
2019-Aug-17 22:21 200 15.6
2019-Aug-17 22:16 200 15.6
2019-Aug-17 22:11 16.1
2019-Aug-17 22:06 201 16.1
2019-Aug-17 22:01 201 16.1
2019-Aug-17 21:56 16.1
2019-Aug-17 21:51 16.1
2019-Aug-17 21:46 16.1
2019-Aug-17 21:41 16.1
2019-Aug-17 21:36 16.1
2019-Aug-17 21:31 16.1
2019-Aug-17 21:26 16.1
2019-Aug-17 21:21 16.1
2019-Aug-17 21:15 200 16.1
2019-Aug-17 21:01 16.1
2019-Aug-17 20:56 16.1
2019-Aug-17 20:51 16.1
2019-Aug-17 20:46 16.1
2019-Aug-17 20:41 16.1
2019-Aug-17 20:36 16.1
2019-Aug-17 20:31 16.1
2019-Aug-17 20:26 201 16.1
2019-Aug-17 20:21 201 16.1
2019-Aug-17 20:16 201 16.1
2019-Aug-17 20:11 201 16.7
2019-Aug-17 20:06 201 16.7
2019-Aug-17 20:01 201 16.7
2019-Aug-17 19:56 201 16.7
2019-Aug-17 19:51 201 16.7
2019-Aug-17 19:46 316 16.1
2019-Aug-17 19:31 316 16.7
2019-Aug-17 19:21 16.7
2019-Aug-17 19:16 16.7
2019-Aug-17 19:11 16.7
2019-Aug-17 19:01 316 16.7
2019-Aug-17 18:51 17.2
2019-Aug-17 18:46 17.2
2019-Aug-17 18:41 17.2
2019-Aug-17 18:36 17.2
2019-Aug-17 18:31 17.2
2019-Aug-17 18:26 17.8
2019-Aug-17 18:16 316 17.2
2019-Aug-17 18:01 316 17.2
2019-Aug-17 17:46 316 17.8
2019-Aug-17 17:32 317 17.8
2019-Aug-17 17:16 261 17.8
2019-Aug-17 17:02 260 18.3
2019-Aug-17 16:56 258 0 gusting 3 18.3
2019-Aug-17 16:51 257 0 gusting 3 18.3
2019-Aug-17 16:46 255 18.3
2019-Aug-17 16:41 256 18.3
2019-Aug-17 16:36 256 18.3
2019-Aug-17 16:31 256 18.3
2019-Aug-17 16:26 256 0 gusting 1 18.3
2019-Aug-17 16:21 257 0 gusting 3 18.3
2019-Aug-17 16:16 257 17.8
2019-Aug-17 16:11 262 1 gusting 5 18.3
2019-Aug-17 16:06 255 1 gusting 5 18.3
2019-Aug-17 16:01 235 0 gusting 5 17.8
2019-Aug-17 15:46 275 17.8
2019-Aug-17 15:31 298 0 gusting 8 17.8
2019-Aug-17 15:26 290 3 gusting 8 17.8
2019-Aug-17 15:21 290 2 gusting 6 17.8
2019-Aug-17 15:16 293 1 gusting 6 17.8
2019-Aug-17 15:11 294 17.8
2019-Aug-17 15:06 17.8
2019-Aug-17 15:01 286 0 gusting 3 17.8
2019-Aug-17 14:46 307 2 gusting 6 17.8
2019-Aug-17 14:41 313 1 gusting 3 18.3
2019-Aug-17 14:36 301 0 gusting 3 18.3
2019-Aug-17 14:26 282 3 gusting 9 17.8
2019-Aug-17 14:21 279 2 gusting 8 17.8
2019-Aug-17 14:16 269 1 gusting 6 17.8
2019-Aug-17 14:11 288 0 gusting 6 17.8
2019-Aug-17 14:06 278 2 gusting 6 17.8
2019-Aug-17 14:01 270 2 gusting 6 17.8
2019-Aug-17 13:56 274 1 gusting 6 17.8
2019-Aug-17 13:51 283 1 gusting 6 17.8
2019-Aug-17 13:46 275 1 gusting 6 17.8
2019-Aug-17 13:32 258 0 gusting 6 17.8
2019-Aug-17 13:16 266 3 gusting 7 17.8
2019-Aug-17 13:11 298 1 gusting 4 18.3
2019-Aug-17 13:06 276 0 gusting 3 18.3
2019-Aug-17 13:01 270 0 gusting 3 18.3
2019-Aug-17 12:56 286 17.8
2019-Aug-17 12:51 292 17.8
2019-Aug-17 12:46 281 17.8
2019-Aug-17 12:41 279 0 gusting 6 17.8
2019-Aug-17 12:36 278 0 gusting 4 17.8
2019-Aug-17 12:31 294 1 gusting 6 18.3
2019-Aug-17 12:26 300 2 gusting 8 18.3
2019-Aug-17 12:21 309 3 gusting 8 18.3
2019-Aug-17 12:16 306 2 gusting 10 18.9
2019-Aug-17 12:11 309 6 gusting 14 19.4
2019-Aug-17 12:06 294 3 gusting 14 20.6
2019-Aug-17 12:01 240 0 gusting 8 21.7
2019-Aug-17 11:56 225 0 gusting 5 21.7
2019-Aug-17 11:51 212 0 gusting 6 21.7
2019-Aug-17 11:46 205 1 gusting 12 21.7
2019-Aug-17 11:26 199 2 gusting 9 21.1
2019-Aug-17 11:21 201 3 gusting 8 21.1
2019-Aug-17 11:16 200 3 gusting 9 21.1
2019-Aug-17 11:11 202 1 gusting 9 21.1
2019-Aug-17 11:06 212 0 gusting 6 21.1
2019-Aug-17 11:01 206 1 gusting 8 20.6
2019-Aug-17 10:46 197 0 gusting 9 20.6
2019-Aug-17 10:36 206 2 gusting 10 20.6
2019-Aug-17 10:31 207 2 gusting 10 20.6
2019-Aug-17 10:26 200 3 gusting 11 20.6
2019-Aug-17 10:21 201 2 gusting 11 20.6
2019-Aug-17 10:16 205 1 gusting 8 20.6
2019-Aug-17 10:11 211 1 gusting 8 20.0
2019-Aug-17 10:06 212 1 gusting 6 20.0
2019-Aug-17 10:01 213 1 gusting 6 20.0
2019-Aug-17 09:46 167 0 gusting 10 19.4
2019-Aug-17 09:30 202 5 gusting 13 19.4
2019-Aug-17 09:16 197 1 gusting 10 19.4
2019-Aug-17 09:11 200 2 gusting 6 19.4
2019-Aug-17 09:06 200 1 gusting 7 19.4
2019-Aug-17 09:01 217 1 gusting 8 19.4
2019-Aug-17 08:56 204 3 gusting 8 19.4
2019-Aug-17 08:51 204 3 gusting 11 19.4
2019-Aug-17 08:46 202 2 gusting 11 19.4
2019-Aug-17 08:41 204 2 gusting 6 19.4
2019-Aug-17 08:36 206 3 gusting 8 19.4
2019-Aug-17 08:31 204 2 gusting 8 19.4
2019-Aug-17 08:26 203 1 gusting 7 19.4
2019-Aug-17 08:21 203 1 gusting 7 19.4
2019-Aug-17 08:16 208 1 gusting 7 19.4
2019-Aug-17 08:11 202 1 gusting 7 19.4
2019-Aug-17 07:51 193 3 gusting 7 18.9
2019-Aug-17 07:46 195 2 gusting 8 18.9
2019-Aug-17 07:41 203 2 gusting 9 18.9
2019-Aug-17 07:36 198 2 gusting 9 18.9
2019-Aug-17 07:16 198 3 gusting 7 18.3
2019-Aug-17 07:01 229 2 gusting 6 18.3
2019-Aug-17 06:56 202 2 gusting 6 18.3
2019-Aug-17 06:51 202 1 gusting 8 18.3
2019-Aug-17 06:46 210 17.8
2019-Aug-17 06:30 190 2 gusting 8 17.8
2019-Aug-17 06:21 200 0 gusting 9 17.8
2019-Aug-17 06:16 188 1 gusting 10 17.2
2019-Aug-17 06:11 200 0 gusting 10 17.8
2019-Aug-17 06:06 186 0 gusting 5 17.8
2019-Aug-17 06:01 195 0 gusting 8 17.8
2019-Aug-17 05:56 204 0 gusting 8 17.8
2019-Aug-17 05:51 208 0 gusting 7 17.8
2019-Aug-17 05:45 230 0 gusting 7 17.2
2019-Aug-17 05:30 212 2 gusting 10 17.2
2019-Aug-17 05:16 199 2 gusting 8 17.2
2019-Aug-17 05:11 206 2 gusting 6 17.2
2019-Aug-17 05:06 201 2 gusting 9 17.2
2019-Aug-17 05:01 197 2 gusting 9 17.2
2019-Aug-17 04:56 199 2 gusting 9 17.2
2019-Aug-17 04:51 198 1 gusting 7 17.2
2019-Aug-17 04:46 212 17.2
2019-Aug-17 04:41 206 1 gusting 8 17.2
2019-Aug-17 04:36 205 1 gusting 8 17.2
2019-Aug-17 04:31 184 0 gusting 6 16.7
2019-Aug-17 04:26 200 0 gusting 5 17.2
2019-Aug-17 04:21 204 0 gusting 6 17.2
2019-Aug-17 04:16 206 0 gusting 6 17.2
2019-Aug-17 03:46 179 0 gusting 8 17.2
2019-Aug-17 03:31 196 17.2
2019-Aug-17 03:15 185 0 gusting 7 17.2
2019-Aug-17 03:00 210 0 gusting 10 17.2
2019-Aug-17 02:51 197 1 gusting 8 17.8
2019-Aug-17 02:46 206 1 gusting 8 17.8
2019-Aug-17 02:41 212 0 gusting 8 17.8
2019-Aug-17 02:36 207 1 gusting 8 17.8
2019-Aug-17 02:31 201 2 gusting 13 17.8
2019-Aug-17 02:26 198 1 gusting 13 17.8
2019-Aug-17 02:15 214 2 gusting 11 17.8
2019-Aug-17 02:00 219 3 gusting 13 17.8
2019-Aug-17 01:51 204 2 gusting 12 18.3
2019-Aug-17 01:46 206 2 gusting 12 18.3
2019-Aug-17 01:11 213 1 gusting 8 18.3
2019-Aug-17 01:06 218 0 gusting 6 18.3
2019-Aug-17 01:01 195 1 gusting 14 18.3
2019-Aug-17 00:56 194 1 gusting 14 18.3
2019-Aug-17 00:45 200 3 gusting 9 17.8
2019-Aug-17 00:30 152 0 gusting 10 17.8
2019-Aug-17 00:21 192 1 gusting 9 17.8
2019-Aug-17 00:16 270 1 gusting 11 17.8
2019-Aug-17 00:11 196 1 gusting 11 17.8
2019-Aug-17 00:06 196 1 gusting 8 17.8
2019-Aug-17 00:01 195 1 gusting 8 17.8
2019-Aug-16 23:30 228 4 gusting 9 17.8
2019-Aug-16 23:26 205 1 gusting 7 17.8
2019-Aug-16 23:21 203 1 gusting 6 17.8
2019-Aug-16 23:16 204 2 gusting 6 17.8
2019-Aug-16 23:11 200 3 gusting 8 17.8
2019-Aug-16 23:06 199 3 gusting 8 17.8
2019-Aug-16 23:01 201 2 gusting 8 17.8
2019-Aug-16 22:56 203 3 gusting 13 17.8
2019-Aug-16 22:51 198 2 gusting 13 17.8
2019-Aug-16 22:46 200 2 gusting 8 17.8
2019-Aug-16 22:41 201 2 gusting 9 17.8
2019-Aug-16 22:36 196 2 gusting 9 17.8
2019-Aug-16 22:31 193 1 gusting 9 17.8
2019-Aug-16 22:26 193 2 gusting 7 17.2
2019-Aug-16 22:21 197 2 gusting 8 17.2
2019-Aug-16 22:16 197 1 gusting 8 17.2
2019-Aug-16 22:11 198 2 gusting 7 17.2
2019-Aug-16 22:06 200 1 gusting 7 17.2
2019-Aug-16 22:01 180 17.2
2019-Aug-16 21:56 196 0 gusting 6 17.2
2019-Aug-16 21:51 206 0 gusting 5 17.2
2019-Aug-16 21:46 202 17.2
2019-Aug-16 21:41 187 17.8
2019-Aug-16 21:36 222 17.8
2019-Aug-16 21:31 228 0 gusting 2 17.8
2019-Aug-16 21:26 193 0 gusting 6 17.8
2019-Aug-16 21:21 184 17.8
2019-Aug-16 21:16 231 17.8
2019-Aug-16 21:11 222 18.3
2019-Aug-16 20:36 210 18.9
2019-Aug-16 20:31 210 18.9
2019-Aug-16 20:26 205 18.9
2019-Aug-16 20:21 203 19.4
2019-Aug-16 20:16 188 18.9
2019-Aug-16 20:01 190 18.9
2019-Aug-16 19:46 193 19.4
2019-Aug-16 19:41 201 19.4
2019-Aug-16 19:36 201 19.4
2019-Aug-16 19:31 200 19.4
2019-Aug-16 19:15 202 19.4
2019-Aug-16 19:06 215 20.0
2019-Aug-16 19:01 200 20.0
2019-Aug-16 18:46 173 20.0
2019-Aug-16 18:36 197 1 gusting 6 20.6
2019-Aug-16 18:31 198 1 gusting 6 20.6
2019-Aug-16 18:16 217 20.6
2019-Aug-16 18:11 199 0 gusting 3 20.6
2019-Aug-16 18:06 200 0 gusting 6 20.6
2019-Aug-16 18:01 209 0 gusting 6 20.6
2019-Aug-16 17:56 215 0 gusting 4 20.6
2019-Aug-16 17:51 209 0 gusting 4 21.1
2019-Aug-16 17:46 214 0 gusting 6 21.1
2019-Aug-16 17:41 231 0 gusting 6 21.1
2019-Aug-16 17:36 232 0 gusting 6 21.1
2019-Aug-16 17:31 227 0 gusting 6 21.1
2019-Aug-16 17:16 211 1 gusting 9 21.7
2019-Aug-16 17:11 210 1 gusting 11 21.7
2019-Aug-16 17:06 205 0 gusting 11 21.7
2019-Aug-16 17:01 199 0 gusting 4 22.2
2019-Aug-16 16:45 216 22.2
2019-Aug-16 16:31 219 0 gusting 10 22.2
2019-Aug-16 16:16 212 1 gusting 8 22.8
2019-Aug-16 16:11 225 0 gusting 6 22.8
2019-Aug-16 16:06 215 1 gusting 6 22.8
2019-Aug-16 16:01 206 2 gusting 9 22.8
2019-Aug-16 15:56 202 2 gusting 9 22.8
2019-Aug-16 15:51 220 1 gusting 7 22.8
2019-Aug-16 15:46 231 2 gusting 9 22.8
2019-Aug-16 15:41 209 1 gusting 8 23.3
2019-Aug-16 15:36 228 1 gusting 9 23.3
2019-Aug-16 15:31 237 1 gusting 9 23.3
2019-Aug-16 15:21 245 2 gusting 9 23.3
2019-Aug-16 15:16 273 2 gusting 10 22.8
2019-Aug-16 15:01 192 2 gusting 6 23.3
2019-Aug-16 14:46 254 2 gusting 6 23.9
2019-Aug-16 14:41 226 1 gusting 7 23.9
2019-Aug-16 14:36 217 0 gusting 6 23.9
2019-Aug-16 14:31 214 0 gusting 6 23.3
2019-Aug-16 14:26 214 1 gusting 6 23.3
2019-Aug-16 14:21 207 2 gusting 10 23.3
2019-Aug-16 14:16 202 3 gusting 10 23.3
2019-Aug-16 14:11 193 4 gusting 10 23.3
2019-Aug-16 14:06 201 4 gusting 12 23.3
2019-Aug-16 14:01 218 2 gusting 12 23.3
2019-Aug-16 13:56 220 0 gusting 10 23.3
2019-Aug-16 13:51 208 1 gusting 7 23.3
2019-Aug-16 13:48 235 1 gusting 11 23.3
2019-Aug-16 13:41 208 3 gusting 12 23.3
2019-Aug-16 13:30 186 2 gusting 10 23.3
2019-Aug-16 13:16 224 0 gusting 9 23.3
2019-Aug-16 13:00 195 0 gusting 13 22.8
2019-Aug-16 12:51 191 2 gusting 10 22.8
2019-Aug-16 12:46 176 2 gusting 10 22.8
2019-Aug-16 12:41 170 2 gusting 11 22.8
2019-Aug-16 12:36 174 3 gusting 11 22.8
2019-Aug-16 12:31 178 4 gusting 12 23.3
2019-Aug-16 12:21 185 2 gusting 8 22.8
2019-Aug-16 12:16 210 2 gusting 8 22.2
2019-Aug-16 12:11 209 2 gusting 9 22.2
2019-Aug-16 12:06 195 3 gusting 9 22.2
2019-Aug-16 12:01 196 2 gusting 9 22.2